This is the latest recevied weather packets stored in our database for station/object KF0JJO. If no packets are shown the sender has not sent any weather packets the latest 10 day(s).
| Time | Temp. | Humidity | Pressure | Rain* | Wind** | Luminosity | Snow |
|---|---|---|---|---|---|---|---|
| 1777767024 | 17.78° C | 35% | 1042 hPa | 0 mm | - | 9 W/m² | - |
| 1777766722 | 17.78° C | 34% | 1042 hPa | 0 mm | - | 11 W/m² | - |
| 1777766418 | 17.78° C | 34% | 1042.1 hPa | 0 mm | - | 28 W/m² | - |
| 1777766115 | 18.33° C | 34% | 1042.3 hPa | 0 mm | - | 41 W/m² | - |
| 1777765813 | 18.33° C | 31% | 1042.2 hPa | 0 mm | - | 25 W/m² | - |
| 1777765509 | 18.89° C | 30% | 1042.1 hPa | 0 mm | - | 20 W/m² | - |
| 1777765207 | 18.89° C | 30% | 1042.1 hPa | 0 mm | - | 33 W/m² | - |
| 1777764906 | 18.89° C | 29% | 1042.2 hPa | 0 mm | - | 33 W/m² | - |
| 1777764604 | 18.89° C | 29% | 1042 hPa | 0 mm | - | 38 W/m² | - |
| 1777764300 | 18.89° C | 28% | 1042.1 hPa | 0 mm | - | 41 W/m² | - |
| 1777763997 | 18.89° C | 28% | 1042.1 hPa | 0 mm | - | 49 W/m² | - |
| 1777763694 | 18.89° C | 29% | 1042.1 hPa | 0 mm | - | 60 W/m² | - |
| 1777763392 | 18.89° C | 29% | 1042.5 hPa | 0 mm | - | 82 W/m² | - |
| 1777763090 | 18.89° C | 28% | 1042.2 hPa | 0 mm | - | 95 W/m² | - |
| 1777762788 | 18.89° C | 28% | 1042.3 hPa | 0 mm | - | 97 W/m² | - |
| 1777762484 | 18.89° C | 29% | 1042.4 hPa | 0 mm | - | 94 W/m² | - |
| 1777762181 | 18.89° C | 29% | 1042.4 hPa | 0 mm | - | 86 W/m² | - |
| 1777761877 | 18.89° C | 28% | 1042.4 hPa | 0 mm | - | 72 W/m² | - |
| 1777761574 | 18.89° C | 28% | 1042.4 hPa | 0 mm | - | 90 W/m² | - |
| 1777761272 | 18.89° C | 28% | 1042.5 hPa | 0 mm | - | 76 W/m² | - |
| 1777760970 | 18.89° C | 28% | 1042.6 hPa | 0 mm | - | 77 W/m² | - |
| 1777760667 | 18.89° C | 28% | 1042.5 hPa | 0 mm | - | 79 W/m² | - |
| 1777760362 | 18.89° C | 27% | 1042.7 hPa | 0 mm | - | 86 W/m² | - |
| 1777760059 | 18.89° C | 27% | 1042.9 hPa | 0 mm | - | 76 W/m² | - |
| 1777759756 | 19.44° C | 28% | 1042.7 hPa | 0 mm | - | 78 W/m² | - |
* Rain latest hour (hover to see other rain measurements)
** Current wind speed in m/s (hover to see current wind gust speed)